Location: Gälforsberget
(66.6500°N, 22.4167°E)
Time: 15:55:12
(UTC+00:00)

Helios 1B rocket - Pass Details

Date: 11 April 2026
Orbit: 462 x 467 km, 98.2° (Epoch: 17 May)

Event Time Altitude Azimuth Distance (km) Brightness Sun altitude
Exits shadow 21:27:17 16° 210° (SSW) 1,312 3.8 -13.9°
Maximum altitude 21:29:29 29° 263° (W) 889 3.5 -13.9°
Drops below altitude 10° 21:32:38 10° 326° (NW) 1,651 6.0 -14.0°
Sets 21:34:53 0° 338° (NNW) 2,535 7.6 -14.1°
